• In Kazakhstan
  • List of Countries
  • For 7 days
  • Water Temperature
  • Satellite Maps
  • Weather Map
  • News
  • Weather Widgets
  • user-avatar
    Login

    Hourly Weather Gjirokaster

    Today, 22 October, Sunday

    Time Temperature Precipitation Wind Pressure Humidity
    00:00 +8°C° 0 mm 2 mps 653 mmHg 80%
    01:00 +7°C° 0 mm 2 mps 652 mmHg 78%
    02:00 +7°C° 0 mm 2 mps 652 mmHg 76%
    03:00 +7°C° 0 mm 2 mps 652 mmHg 73%
    04:00 +7°C° 0 mm 2 mps 652 mmHg 70%
    05:00 +7°C° 0 mm 2 mps 652 mmHg 67%
    06:00 +7°C° 0 mm 2 mps 652 mmHg 63%
    07:00 +8°C° 0 mm 2 mps 652 mmHg 57%
    08:00 +10°C° 0 mm 2 mps 653 mmHg 51%
    09:00 +14°C° 0 mm 2 mps 653 mmHg 45%
    10:00 +16°C° 0 mm 2 mps 654 mmHg 40%
    11:00 +16°C° 0 mm 2 mps 654 mmHg 40%
    12:00 +17°C° 0 mm 3 mps 653 mmHg 41%
    13:00 +18°C° 0 mm 3 mps 653 mmHg 42%
    14:00 +17°C° 0 mm 3 mps 653 mmHg 46%
    15:00 +16°C° 0 mm 3 mps 652 mmHg 51%
    16:00 +14°C° 0 mm 3 mps 652 mmHg 55%
    17:00 +14°C° 0 mm 2 mps 651 mmHg 62%
    18:00 +12°C° 0 mm 1 mps 651 mmHg 68%
    19:00 +11°C° 0 mm 1 mps 651 mmHg 75%
    20:00 +11°C° 0 mm 1 mps 650 mmHg 76%
    21:00 +10°C° 0 mm 1 mps 650 mmHg 77%
    22:00 +9°C° 0 mm 2 mps 650 mmHg 79%
    23:00 +9°C° 0 mm 2 mps 650 mmHg 80%

    Tomorrow, 23 October, Monday

    Time Temperature Precipitation Wind Pressure Humidity
    00:00 +8°C° 0 mm 3 mps 649 mmHg 82%
    01:00 +8°C° 0 mm 3 mps 649 mmHg 84%
    02:00 +8°C° 0.4 mm 3 mps 648 mmHg 84%
    03:00 +8°C° 0.4 mm 3 mps 648 mmHg 84%
    04:00 +7°C° 0.4 mm 4 mps 647 mmHg 84%
    05:00 +8°C° 0.8 mm 3 mps 647 mmHg 84%
    06:00 +8°C° 0.8 mm 3 mps 647 mmHg 85%
    07:00 +8°C° 0.8 mm 3 mps 647 mmHg 85%
    08:00 +9°C° 1 mm 3 mps 646 mmHg 81%
    09:00 +10°C° 1 mm 3 mps 646 mmHg 78%
    10:00 +12°C° 1 mm 2 mps 646 mmHg 74%
    11:00 +10°C° 1.5 mm 2 mps 646 mmHg 78%
    12:00 +9°C° 1.5 mm 2 mps 645 mmHg 81%
    13:00 +8°C° 1.5 mm 3 mps 644 mmHg 84%
    14:00 +8°C° 0.9 mm 2 mps 644 mmHg 82%
    15:00 +8°C° 0.9 mm 2 mps 643 mmHg 80%
    16:00 +9°C° 0.9 mm 1 mps 643 mmHg 78%
    17:00 +9°C° 0.5 mm 1 mps 643 mmHg 80%
    18:00 +8°C° 0.5 mm 1 mps 643 mmHg 82%
    19:00 +7°C° 0.5 mm 1 mps 643 mmHg 84%
    20:00 +6°C° 0.3 mm 2 mps 642 mmHg 84%
    21:00 +5°C° 0.3 mm 2 mps 642 mmHg 84%
    22:00 +4°C° 0.3 mm 3 mps 642 mmHg 84%
    23:00 +5°C° 0.1 mm 2 mps 642 mmHg 85%

    Day after tomorrow, 24 October, Tuesday

    Time Temperature Precipitation Wind Pressure Humidity
    00:00 +4°C° 0.1 mm 2 mps 642 mmHg 86%
    01:00 +4°C° 0.1 mm 2 mps 642 mmHg 87%
    02:00 +4°C° 0 mm 2 mps 641 mmHg 87%
    03:00 +3°C° 0 mm 2 mps 641 mmHg 87%
    04:00 +3°C° 0 mm 2 mps 641 mmHg 87%
    05:00 +3°C° 0.1 mm 2 mps 641 mmHg 86%
    06:00 +4°C° 0.1 mm 2 mps 641 mmHg 84%
    07:00 +3°C° 0.1 mm 3 mps 642 mmHg 82%
    08:00 +4°C° 0 mm 3 mps 642 mmHg 74%
    09:00 +7°C° 0 mm 3 mps 643 mmHg 66%
    10:00 +9°C° 0 mm 3 mps 643 mmHg 58%
    11:00 +9°C° 0 mm 3 mps 643 mmHg 55%
    12:00 +10°C° 0 mm 4 mps 643 mmHg 53%
    13:00 +10°C° 0 mm 4 mps 644 mmHg 50%
    14:00 +10°C° 0 mm 4 mps 644 mmHg 53%
    15:00 +8°C° 0 mm 4 mps 644 mmHg 55%
    16:00 +8°C° 0 mm 4 mps 644 mmHg 57%
    17:00 +7°C° 0 mm 4 mps 644 mmHg 61%
    18:00 +6°C° 0 mm 4 mps 644 mmHg 66%
    19:00 +4°C° 0 mm 4 mps 644 mmHg 70%
    20:00 +4°C° 0 mm 4 mps 645 mmHg 72%
    21:00 +4°C° 0 mm 3 mps 645 mmHg 73%
    22:00 +3°C° 0 mm 3 mps 645 mmHg 74%
    23:00 +3°C° 0 mm 3 mps 645 mmHg 75%

    25 October, Wednesday

    Time Temperature Precipitation Wind Pressure Humidity
    00:00 +3°C° 0 mm 3 mps 645 mmHg 75%
    01:00 +3°C° 0 mm 3 mps 646 mmHg 76%
    02:00 +3°C° 0.1 mm 3 mps 646 mmHg 76%
    03:00 +3°C° 0.1 mm 3 mps 646 mmHg 76%
    04:00 +4°C° 0.1 mm 3 mps 646 mmHg 76%
    05:00 +4°C° 0 mm 3 mps 647 mmHg 75%
    06:00 +4°C° 0 mm 3 mps 647 mmHg 75%
    07:00 +5°C° 0 mm 3 mps 648 mmHg 75%
    08:00 +7°C° 0 mm 3 mps 649 mmHg 70%
    09:00 +9°C° 0 mm 3 mps 649 mmHg 64%
    10:00 +10°C° 0 mm 3 mps 650 mmHg 58%
    11:00 +11°C° 0 mm 3 mps 651 mmHg 57%
    12:00 +11°C° 0 mm 3 mps 651 mmHg 55%
    13:00 +12°C° 0 mm 3 mps 652 mmHg 54%
    14:00 +11°C° 0 mm 3 mps 652 mmHg 57%
    15:00 +11°C° 0 mm 3 mps 652 mmHg 60%
    16:00 +10°C° 0 mm 3 mps 652 mmHg 63%
    17:00 +9°C° 0 mm 3 mps 653 mmHg 66%
    18:00 +8°C° 0 mm 3 mps 653 mmHg 70%
    19:00 +7°C° 0 mm 3 mps 653 mmHg 73%
    20:00 +7°C° 0 mm 3 mps 654 mmHg 75%
    21:00 +7°C° 0 mm 3 mps 654 mmHg 76%
    22:00 +5°C° 0 mm 3 mps 654 mmHg 78%
    23:00 +6°C° 0 mm 2 mps 655 mmHg 78%

    26 October, Thursday

    Time Temperature Precipitation Wind Pressure Humidity
    00:00 +6°C° 0 mm 2 mps 655 mmHg 79%
    01:00 +5°C° 0 mm 2 mps 655 mmHg 79%
    02:00 +5°C° 0 mm 2 mps 655 mmHg 79%
    03:00 +5°C° 0 mm 2 mps 655 mmHg 79%
    04:00 +5°C° 0 mm 2 mps 655 mmHg 78%
    05:00 +5°C° 0 mm 2 mps 655 mmHg 77%
    06:00 +5°C° 0 mm 2 mps 656 mmHg 76%
    07:00 +6°C° 0 mm 2 mps 656 mmHg 75%
    08:00 +8°C° 0 mm 2 mps 657 mmHg 66%
    09:00 +11°C° 0 mm 1 mps 657 mmHg 58%
    10:00 +14°C° 0 mm 1 mps 658 mmHg 50%
    11:00 +14°C° 0 mm 2 mps 658 mmHg 47%
    12:00 +15°C° 0 mm 2 mps 658 mmHg 45%
    13:00 +16°C° 0 mm 2 mps 658 mmHg 42%
    14:00 +15°C° 0 mm 2 mps 657 mmHg 46%
    15:00 +14°C° 0 mm 3 mps 657 mmHg 50%
    16:00 +13°C° 0 mm 3 mps 657 mmHg 54%
    17:00 +11°C° 0 mm 3 mps 657 mmHg 57%
    18:00 +10°C° 0 mm 2 mps 657 mmHg 60%
    19:00 +9°C° 0 mm 2 mps 657 mmHg 64%
    20:00 +8°C° 0 mm 2 mps 657 mmHg 63%
    21:00 +8°C° 0 mm 2 mps 657 mmHg 62%
    22:00 +8°C° 0 mm 2 mps 657 mmHg 61%
    23:00 +8°C° 0 mm 2 mps 656 mmHg 60%

    27 October, Friday

    Time Temperature Precipitation Wind Pressure Humidity
    00:00 +7°C° 0 mm 2 mps 656 mmHg 59%
    01:00 +7°C° 0 mm 2 mps 656 mmHg 58%
    02:00 +7°C° 0 mm 2 mps 656 mmHg 57%
    03:00 +7°C° 0 mm 2 mps 656 mmHg 57%
    04:00 +7°C° 0 mm 2 mps 655 mmHg 56%
    05:00 +7°C° 0 mm 2 mps 655 mmHg 56%
    06:00 +7°C° 0 mm 2 mps 655 mmHg 56%
    07:00 +9°C° 0 mm 1 mps 655 mmHg 56%
    08:00 +11°C° 0 mm 1 mps 656 mmHg 50%
    09:00 +13°C° 0 mm 1 mps 656 mmHg 45%
    10:00 +16°C° 0 mm 1 mps 657 mmHg 40%
    11:00 +16°C° 0 mm 1 mps 656 mmHg 39%
    12:00 +17°C° 0 mm 2 mps 656 mmHg 38%
    13:00 +17°C° 0 mm 2 mps 655 mmHg 38%
    14:00 +16°C° 0 mm 2 mps 655 mmHg 43%
    15:00 +15°C° 0 mm 2 mps 654 mmHg 48%
    16:00 +14°C° 0 mm 2 mps 654 mmHg 52%
    17:00 +13°C° 0 mm 1 mps 653 mmHg 58%
    18:00 +11°C° 0 mm 1 mps 652 mmHg 63%
    19:00 +10°C° 0 mm 1 mps 652 mmHg 68%
    20:00 +9°C° 0 mm 1 mps 652 mmHg 70%
    21:00 +9°C° 0 mm 1 mps 651 mmHg 71%
    22:00 +9°C° 0 mm 1 mps 651 mmHg 73%
    23:00 +8°C° 0 mm 1 mps 650 mmHg 75%
    Show more